Location: Caltech
(34.1382°N, 118.1253°W)
Time: 20:33:32
(UTC-07:00)

PANSAT - Visible Passes

Search period start: 01 July 2015 00:00
Search period end: 11 July 2015 00:00
Orbit: 483 x 490 km, 28.5° (Epoch: 01 July)

Date Brightness Start Highest point End Pass type
(mag) Time Alt. Az. Time Alt. Az. Time Alt. Az.
01 Jul 9.9 22:01:27 10° SW 22:02:00 13° SW 22:02:00 13° SW visible
02 Jul 8.8 21:33:53 10° SW 21:36:39 24° S 21:36:39 24° S visible
03 Jul 8.8 21:06:19 10° SW 21:09:27 24° SSE 21:11:05 18° SE visible
04 Jul 8.8 20:38:45 10° SW 20:41:54 25° SSE 20:45:04 10° ESE visible
04 Jul 9.4 22:18:03 10° WSW 22:19:36 21° SW 22:19:36 21° SW visible
05 Jul 8.4 21:50:30 10° WSW 21:53:41 34° SSW 21:53:41 34° SSW visible
06 Jul 8.3 21:22:57 10° WSW 21:26:26 34° S 21:27:39 27° SE visible
07 Jul 8.4 20:55:24 10° WSW 20:58:52 34° S 21:01:33 15° ESE visible
07 Jul 10.2 22:35:27 10° WSW 22:35:48 12° WSW 22:35:48 12° WSW visible
08 Jul 9.5 22:07:54 10° WSW 22:09:39 19° SW 22:09:39 19° SW visible
09 Jul 9.0 21:40:23 10° WSW 21:43:22 22° SSW 21:43:28 22° SSW visible
10 Jul 9.1 21:12:51 10° WSW 21:15:48 21° SSW 21:17:17 17° SSE visible
